RH
19 19 18 18 17 17 16 16 16 15 15 14 14 13 12 13 12 12 12 12 12 11 12 11 11 11 11 11 11 10 9 9 8 8 8 8 8 8 9 8 8 8 7 8 7 8 7 7 7 7 7 7 7 6 7 7 8 9 8 8 9 16 24 31 33 50 72 55 43 47 44 62 77 80 81 66 64 77 68 55 56 48 39 42 42 33 29 31
20 19 18 18 17 17 16 16 16 15 16 15 15 14 13 13 12 12 12 11 11 11 11 11 11 11 11 11 11 11 10 10 9 9 8 8 8 7 8 8 8 8 8 8 7 7 7 7 7 8 7 6 7 6 7 7 7 8 8 9 8 10 18 25 32 62 81 53 45 51 41 55 74 83 80 61 66 80 70 59 58 51 40 39 42 34 29 32
21 20 19 18 17 16 16 16 16 15 15 15 15 15 14 14 13 13 12 12 11 11 11 10 11 10 10 10 10 11 10 11 10 10 9 8 8 7 8 8 8 8 8 8 7 7 7 8 7 7 7 7 7 7 7 7 7 8 8 8 8 8 14 19 30 70 86 53 47 52 40 48 64 80 77 62 70 78 72 66 60 53 41 37 41 34 30 32
22 21 20 19 18 17 16 16 15 15 15 14 14 14 14 14 14 14 13 13 12 12 11 10 11 10 10 10 10 10 10 10 10 10 10 10 9 8 8 7 8 8 8 8 7 8 7 8 8 7 8 7 7 7 7 7 7 7 8 8 8 7 10 15 24 66 92 68 58 52 42 45 54 72 71 62 70 71 72 72 63 52 42 37 38 34 30 31
23 22 21 20 19 18 17 17 16 15 15 14 14 14 14 13 13 13 13 13 12 12 12 11 11 10 10 9 9 10 9 10 9 10 10 10 10 9 9 8 8 7 7 8 7 8 7 7 8 7 8 7 8 7 7 7 7 7 7 7 8 8 9 13 18 55 94 90 77 58 49 50 50 67 67 58 62 62 70 76 66 52 43 38 35 33 30 31
24 23 23 22 21 20 19 17 16 16 15 15 14 14 13 13 13 12 12 12 12 12 12 12 11 11 11 10 10 9 9 9 9 9 9 10 10 10 10 9 9 8 7 7 7 8 8 8 7 8 8 7 8 7 7 7 7 7 7 7 8 8 7 11 14 40 85 99 90 66 60 60 50 68 74 58 55 52 63 78 72 54 45 40 34 32 29 31
24 24 23 23 22 21 20 19 17 16 16 15 15 14 13 13 12 12 12 11 11 11 11 11 11 11 11 10 10 9 9 9 9 9 9 9 9 9 10 9 9 9 8 7 8 7 7 8 7 8 8 8 8 7 8 7 8 7 7 7 7 8 7 10 11 25 60 81 81 68 67 67 53 68 75 63 60 50 56 76 75 58 47 42 36 31 28 30
26 26 25 24 24 23 22 20 19 18 17 16 16 15 14 13 13 12 12 11 11 11 10 10 10 10 10 10 10 9 9 9 9 9 9 9 8 9 9 9 10 9 9 8 8 7 7 8 7 8 8 8 8 7 8 7 8 7 7 8 5 9 7 8 10 14 34 49 65 72 70 72 66 69 69 65 68 53 50 67 72 61 49 44 39 33 28 29
29 28 27 25 24 23 22 21 20 19 18 17 17 16 15 14 14 13 12 11 11 10 10 10 10 9 9 9 9 9 9 9 9 9 8 9 8 9 8 8 9 8 9 9 9 8 7 8 7 8 8 8 8 7 8 7 9 8 7 8 6 8 6 8 9 9 20 25 51 78 79 86 84 73 66 63 69 60 48 57 67 63 50 46 44 36 30 28
30 28 27 25 24 23 22 21 20 19 19 18 18 17 17 16 15 14 13 12 11 11 10 10 9 9 9 9 9 8 9 8 9 9 8 9 8 8 8 8 8 8 9 8 9 9 9 9 8 8 7 7 8 7 8 8 8 8 7 8 6 7 7 8 7 8 14 14 45 80 86 99 96 81 77 65 63 62 50 51 63 64 51 46 47 40 32 28
30 28 27 26 24 23 22 21 21 20 19 19 18 17 17 17 16 15 14 13 12 11 10 10 9 9 9 8 8 8 8 8 8 8 8 8 8 8 8 8 8 8 8 8 8 9 9 10 9 9 8 7 7 7 8 8 8 8 8 8 7 7 7 7 6 8 8 15 55 87 88 101 101 93 96 76 58 56 50 49 59 62 53 45 47 44 34 28
30 29 28 27 25 24 23 22 21 21 20 19 18 18 18 17 16 16 15 13 12 11 10 10 9 8 9 8 8 8 8 8 7 8 8 8 8 8 8 8 8 8 8 8 8 8 9 9 10 9 9 8 7 7 7 8 8 8 8 8 8 7 7 7 6 7 6 16 55 90 95 101 102 98 105 86 58 54 51 45 50 57 54 46 46 45 38 30
31 30 29 28 27 25 24 23 21 20 19 19 18 18 18 17 16 15 14 14 12 11 10 10 10 8 9 8 8 8 7 7 7 7 7 7 7 7 8 7 8 8 8 8 8 9 8 8 9 9 10 8 7 7 7 7 7 8 8 8 8 7 8 7 6 7 7 11 38 83 101 101 102 93 97 87 60 59 57 44 44 49 51 48 45 44 40 33
32 31 30 29 28 26 24 23 21 21 20 19 19 18 18 16 16 15 14 13 12 11 10 10 10 9 9 8 8 8 7 7 7 7 7 7 7 7 7 7 7 7 7 8 8 9 8 8 8 8 10 9 8 8 7 7 7 8 7 7 8 7 8 7 7 6 7 9 24 74 103 99 101 86 81 82 66 69 63 47 45 40 45 49 44 42 41 37
34 33 32 30 29 27 25 24 22 21 20 19 18 17 17 16 15 14 13 13 12 11 10 10 10 9 9 8 8 8 7 8 7 7 7 7 7 7 7 7 7 7 7 7 7 8 8 8 8 8 9 8 9 8 8 8 6 7 7 7 8 7 9 7 8 6 7 9 13 62 103 99 103 86 70 75 71 78 69 54 51 35 40 50 43 40 40 40
36 35 34 32 31 28 25 24 22 21 20 18 17 16 16 15 14 14 13 13 12 11 11 10 10 9 9 8 8 8 8 8 8 8 8 7 8 7 7 7 7 7 7 7 7 7 7 8 8 8 9 8 8 8 8 8 6 7 6 7 8 7 10 7 9 7 6 10 6 51 102 99 103 87 61 65 68 80 75 59 55 36 38 49 45 42 39 42
38 36 35 33 31 28 26 25 23 22 21 19 18 17 16 15 15 14 13 13 12 12 11 11 11 10 9 9 8 8 8 9 8 8 8 8 8 8 8 7 7 7 6 7 6 7 7 7 8 8 9 8 8 8 7 8 6 7 5 7 8 7 10 7 9 8 6 10 3 41 98 100 102 86 57 61 64 77 84 66 53 41 43 50 48 47 40 42
40 37 35 33 31 29 27 26 25 24 22 21 19 18 17 16 15 14 13 13 13 13 12 12 11 11 10 9 9 9 9 9 9 9 9 8 8 8 8 8 8 8 7 7 6 7 6 6 7 7 8 8 8 8 6 7 6 7 7 6 7 6 10 8 9 9 5 10 3 29 88 104 101 87 64 63 58 69 87 74 55 44 50 55 50 51 44 41
40 38 35 33 31 30 29 28 28 26 24 22 20 18 17 16 15 14 13 13 13 13 13 13 12 12 11 10 10 10 9 9 9 9 9 9 9 9 9 9 9 8 8 8 6 7 6 6 7 6 7 7 8 8 6 7 6 7 8 6 7 6 9 8 8 10 5 10 5 14 69 105 101 92 84 72 54 58 78 76 57 43 50 55 49 53 52 44
39 37 35 33 32 32 31 31 29 27 24 22 21 18 17 16 15 14 14 13 13 13 13 13 13 13 13 12 11 11 10 10 9 10 10 9 10 10 10 9 10 9 9 9 8 7 6 6 6 6 7 6 7 8 6 7 6 6 8 7 8 6 7 9 7 11 7 8 9 5 42 93 104 97 94 84 63 52 64 72 61 45 47 51 46 51 58 51
39 36 35 34 34 34 33 32 30 27 25 23 20 18 17 16 15 14 14 14 13 14 13 13 13 13 13 13 12 12 11 11 10 11 11 10 11 10 11 10 10 10 9 10 9 8 8 6 7 6 6 6 6 7 7 7 6 6 8 7 8 7 6 8 7 10 9 6 12 7 16 59 96 104 97 93 80 58 56 67 65 52 47 48 44 48 59 58
38 36 36 36 36 35 33 32 31 29 25 23 20 17 17 16 16 15 14 14 14 14 13 13 14 13 14 13 13 13 12 13 12 12 12 11 12 11 11 11 11 11 10 10 9 9 9 7 8 7 7 7 6 7 7 7 7 6 7 7 8 9 6 7 7 9 11 7 9 10 8 24 63 96 101 99 95 80 68 67 66 57 47 46 46 49 59 62
38 38 38 38 37 35 34 33 33 31 26 22 19 17 17 16 16 16 15 16 15 14 14 14 14 14 14 14 14 14 14 14 14 14 13 12 13 12 12 12 11 12 11 11 10 9 10 8 9 8 8 8 6 7 6 6 8 6 7 7 7 9 7 7 7 7 10 10 7 9 10 13 33 69 97 103 99 92 79 66 65 59 48 48 48 49 57 61
39 40 39 38 37 35 35 37 36 31 25 21 18 17 18 17 17 17 16 16 15 15 14 14 15 14 15 15 15 15 15 15 14 14 14 14 14 14 14 14 13 14 13 12 11 10 10 9 9 9 8 9 7 7 6 6 7 6 7 7 6 8 9 8 7 7 9 10 10 8 11 17 26 49 79 96 99 93 77 62 63 61 50 48 49 51 56 59
41 40 39 38 37 37 38 39 36 29 23 20 18 18 19 18 18 18 17 18 17 16 16 15 16 16 16 16 15 16 15 15 14 15 16 16 17 17 17 17 16 15 15 13 12 11 11 11 10 10 9 9 8 8 7 6 6 6 7 7 7 7 8 9 7 7 8 9 11 10 11 16 25 47 66 75 84 87 78 63 61 67 56 47 52 57 59 58
42 40 39 38 38 39 40 40 33 26 21 19 18 19 19 19 19 19 19 19 18 17 17 17 17 17 17 16 16 16 16 16 17 18 19 20 20 20 20 20 19 17 16 15 14 13 12 12 11 10 9 9 9 8 8 7 6 6 6 6 7 7 7 9 8 8 7 9 11 10 13 12 19 56 78 73 72 72 72 68 67 77 66 51 56 60 60 59
42 40 39 40 41 41 40 38 30 24 21 20 19 19 19 19 19 19 19 20 19 18 18 18 18 18 18 17 17 17 18 20 22 24 25 25 24 23 22 22 20 19 17 16 15 14 13 12 11 10 10 9 9 9 8 8 7 6 6 5 6 7 7 7 8 9 7 7 11 10 14 11 15 54 86 84 77 70 70 73 76 84 74 59 61 60 62 63
42 40 41 43 43 40 39 35 27 23 22 20 20 19 19 19 19 19 20 20 20 19 20 19 19 19 18 18 17 18 21 24 28 29 29 28 26 24 22 21 19 18 16 15 14 13 12 12 11 10 10 9 9 9 8 8 8 6 6 5 6 6 7 7 7 9 8 6 9 10 13 13 12 39 73 80 78 83 88 84 79 80 72 66 66 60 63 67
41 42 44 45 42 38 37 32 26 23 22 21 21 19 19 19 19 19 20 20 20 20 21 20 19 19 19 19 19 22 27 30 31 31 30 29 26 23 21 19 18 16 15 15 13 12 11 10 11 10 10 10 9 9 8 8 9 8 7 5 5 6 6 7 7 7 9 7 8 9 12 15 13 29 61 70 73 92 105 96 80 69 66 72 74 65 65 69
43 46 47 45 40 37 35 30 26 24 23 22 21 19 19 19 19 19 20 20 21 22 21 20 19 19 18 19 23 27 31 32 32 32 30 28 25 23 20 18 17 16 14 14 12 12 11 10 10 9 9 9 9 9 8 8 9 8 8 6 5 6 5 6 7 6 8 8 8 8 9 15 18 31 55 63 69 94 108 100 80 63 66 77 81 75 69 71
47 49 48 43 38 36 34 29 27 25 24 22 21 19 19 20 19 19 19 20 21 22 21 20 19 19 21 23 27 29 31 33 34 33 30 27 25 22 20 18 17 16 15 13 12 11 11 10 10 9 8 8 8 8 8 8 9 8 8 8 6 6 5 6 7 6 8 9 9 9 8 12 17 30 50 53 63 91 104 96 74 59 70 76 77 85 75 66
50 50 46 42 37 35 33 29 27 26 24 22 21 20 19 19 19 19 19 19 20 21 20 20 21 23 25 27 29 31 33 35 35 34 31 29 26 23 21 20 18 18 16 15 13 12 11 10 10 9 9 8 8 8 8 7 8 8 7 8 7 6 5 6 7 6 7 9 9 9 9 12 13 22 39 43 54 78 90 90 74 60 75 77 71 90 85 63
52 48 44 40 35 34 32 29 28 27 25 22 21 20 19 18 18 18 19 19 21 22 22 23 24 26 29 31 35 37 36 36 35 34 34 32 30 27 24 23 22 20 19 17 16 14 13 11 10 10 9 9 8 8 9 8 8 8 7 8 8 7 6 6 7 7 7 8 8 9 9 11 12 15 27 40 53 63 64 79 85 65 70 78 67 78 86 66
50 45 40 37 33 32 31 29 28 27 25 23 21 19 19 19 19 19 21 21 22 23 24 26 28 33 39 41 43 42 40 39 38 38 37 35 35 32 30 28 26 24 22 21 19 17 17 15 13 12 10 10 10 8 9 9 9 8 7 8 8 7 7 6 6 7 7 7 7 10 10 10 12 13 21 30 43 53 47 61 90 78 61 70 65 67 85 82
47 40 35 33 31 31 31 29 28 27 25 23 21 20 19 19 21 23 25 26 28 30 34 38 43 48 52 49 46 46 46 46 45 43 40 39 39 37 36 33 31 29 26 23 22 21 20 18 16 15 12 11 10 10 10 9 10 9 8 8 8 8 8 6 7 6 7 8 7 9 11 10 11 14 26 32 29 37 37 44 83 94 68 64 66 63 81 96
42 35 31 30 30 30 30 29 28 27 25 23 21 21 22 26 31 36 39 43 46 49 52 54 55 56 56 54 51 52 55 55 51 46 43 41 42 42 42 39 35 32 28 26 24 23 22 20 19 16 14 14 12 11 11 11 11 10 9 10 9 8 8 7 7 6 6 8 7 8 10 10 10 12 33 59 49 32 34 49 84 104 83 67 68 64 74 99
35 31 29 29 29 30 29 28 28 27 24 24 24 27 33 40 46 49 53 57 58 59 59 58 59 60 59 58 56 57 59 59 53 48 47 45 46 48 48 44 39 34 31 29 26 24 23 21 20 18 15 14 13 12 12 11 11 11 11 11 9 9 9 8 8 7 7 7 7 9 9 10 13 9 23 68 82 51 41 66 90 104 98 78 69 65 70 97
31 29 28 28 28 29 29 29 28 27 25 26 30 39 46 50 52 54 57 60 60 59 58 58 61 63 62 61 60 61 61 58 54 52 52 52 53 56 56 50 43 37 35 33 29 26 24 22 21 18 15 13 12 11 11 11 11 12 11 11 10 10 9 9 9 8 7 7 7 8 9 8 12 10 11 45 80 68 53 74 87 94 104 90 76 77 77 89
30 28 27 27 27 28 29 29 28 26 25 28 37 48 54 55 54 55 58 62 62 62 60 60 63 66 66 65 64 63 61 58 56 57 59 59 62 65 63 55 47 42 41 37 32 28 26 24 22 17 15 13 11 11 11 11 11 11 12 11 11 11 10 10 10 9 8 7 8 7 9 12 11 12 9 19 52 62 56 74 82 86 101 87 72 92 98 95
30 29 28 27 27 28 28 28 27 26 25 28 39 51 57 57 56 56 58 62 64 65 64 64 66 68 70 71 69 65 62 61 61 64 66 67 69 72 68 60 50 45 47 42 34 29 28 27 22 17 15 14 14 13 13 13 12 11 12 11 11 11 10 11 10 11 10 7 9 10 12 16 12 11 11 9 27 45 52 75 84 82 93 76 59 89 108 102
31 29 28 27 27 27 28 26 25 24 24 27 37 49 55 55 55 54 54 58 64 68 69 70 71 73 76 78 75 70 66 66 68 72 75 74 75 75 70 62 52 46 49 46 37 31 30 30 25 19 17 16 16 15 15 16 14 13 13 11 12 12 11 11 11 11 11 7 9 11 10 12 10 9 13 9 13 25 39 66 77 69 70 60 54 86 107 100
31 29 27 27 26 26 26 25 23 23 24 25 32 42 48 50 50 48 48 53 63 70 73 74 76 79 82 84 82 77 73 73 76 82 84 80 78 77 72 63 53 47 49 48 41 34 32 32 29 22 19 18 18 16 16 17 16 16 15 13 12 12 11 12 12 12 12 9 8 10 9 13 13 10 13 11 10 14 21 37 50 51 49 43 48 80 103 100
31 29 27 26 25 24 25 24 22 22 22 24 29 35 40 42 43 42 45 52 64 72 75 77 78 83 89 91 88 84 81 81 85 90 90 84 79 77 73 63 53 50 52 50 44 39 34 33 33 27 21 20 19 17 16 17 18 17 17 16 13 12 12 12 13 13 13 10 9 9 12 20 20 12 12 14 11 12 14 16 24 34 39 43 53 75 97 102
30 28 26 25 24 24 24 23 22 23 23 24 27 31 34 36 37 40 47 57 68 76 78 79 82 89 96 97 93 90 88 87 91 95 91 84 82 78 69 58 50 50 54 52 47 43 37 34 35 31 24 21 20 18 16 17 19 17 16 17 15 12 12 12 14 15 13 12 10 9 15 25 26 17 12 14 12 12 14 12 16 24 28 44 73 88 95 103
30 28 25 24 24 25 25 24 23 23 24 25 27 29 32 35 39 47 57 67 75 79 81 83 90 98 101 98 94 94 91 87 88 92 88 82 83 82 68 52 45 48 53 53 49 46 41 36 37 35 27 23 21 19 17 17 19 18 16 17 16 13 13 13 14 16 14 14 12 9 12 20 30 34 25 16 13 12 16 14 14 21 21 37 81 102 97 102
31 30 28 25 24 26 28 29 30 31 33 35 36 39 44 49 55 62 69 76 82 85 87 91 98 104 105 101 96 94 90 83 80 83 83 81 84 87 73 51 42 47 54 55 50 47 44 39 40 39 31 24 21 19 18 17 18 19 17 17 17 15 14 13 15 17 15 14 14 12 11 12 27 47 44 27 17 12 15 17 15 19 19 33 77 104 99 101
37 34 32 29 28 29 31 34 39 43 48 52 55 58 63 66 70 74 76 80 86 91 95 97 100 103 104 103 99 93 85 76 71 73 77 78 83 87 75 53 45 50 57 59 55 50 46 41 42 45 36 26 21 20 19 17 18 20 18 18 19 16 15 15 15 17 16 15 15 13 12 11 18 35 42 36 29 17 12 17 18 18 19 33 74 104 100 98
51 47 43 39 34 33 35 38 42 48 53 59 65 70 74 76 78 81 82 83 88 96 100 100 101 100 98 96 95 90 80 70 67 71 74 74 75 78 68 52 49 55 61 66 61 52 48 43 43 48 41 29 22 19 19 17 18 20 18 18 19 18 17 15 16 18 16 16 17 14 13 13 11 21 32 36 36 27 17 16 17 18 19 27 60 97 105 100
64 63 61 58 53 46 42 42 44 48 54 60 66 71 76 80 84 87 90 91 96 102 104 101 100 98 91 83 79 77 73 67 67 75 78 74 71 68 59 50 52 57 64 71 66 56 51 46 44 46 43 33 24 19 19 18 17 20 20 18 19 20 18 16 17 20 18 16 18 16 14 13 11 16 25 38 55 52 29 20 20 17 20 25 35 61 91 104
65 65 65 67 71 69 64 60 58 57 58 60 66 72 77 81 87 93 98 101 104 106 106 101 96 90 79 67 62 62 63 66 73 81 83 78 74 68 58 52 56 61 68 74 72 63 56 48 43 44 43 37 27 19 18 17 17 20 20 19 20 20 20 18 17 20 21 19 19 19 16 13 13 14 16 41 84 83 40 21 27 21 17 29 31 28 44 73
65 64 62 62 66 71 74 76 79 80 79 76 75 76 80 84 90 97 102 106 108 107 105 99 89 77 64 56 56 58 62 73 83 87 86 84 82 76 65 59 62 68 73 78 75 67 62 53 43 42 44 41 31 22 18 16 17 19 20 20 20 20 21 19 18 21 22 20 21 22 18 12 12 12 10 33 77 83 43 21 31 29 17 25 40 35 27 34
76 73 71 68 66 67 69 73 79 86 92 96 95 92 91 90 94 101 104 105 107 104 98 91 80 68 57 54 57 61 71 83 88 86 86 91 92 86 77 73 73 76 81 81 75 68 66 57 43 40 46 45 35 25 19 17 15 17 20 21 19 20 21 19 20 21 21 25 34 32 19 12 12 7 11 39 70 70 46 27 28 32 23 19 35 52 53 41
Wind_Speed
11 12 12 13 13 13 14 14 15 15 16 16 17 17 18 18 19 20 21 22 24 25 27 28 30 31 33 34 35 36 36 37 38 38 39 40 40 41 42 43 44 44 44 42 42 40 39 37 36 34 32 30 28 27 25 23 22 21 20 19 19 19 18 16 14 13 13 11 6 4 3 5 7 8 8 10 14 15 16 18 22 25 26 27 28 27 28 29
13 13 14 14 15 15 16 16 17 17 18 18 18 18 19 19 20 20 21 22 23 24 25 26 28 29 31 32 33 34 35 36 37 38 39 39 40 40 41 42 43 45 45 44 43 42 41 40 38 36 35 33 31 29 27 25 24 23 22 21 20 20 19 17 15 13 13 11 6 4 3 3 5 6 7 9 12 13 14 16 21 24 24 25 27 26 27 28
14 15 16 16 17 17 18 18 19 19 20 20 20 20 21 21 21 22 22 22 22 23 24 25 26 27 29 30 32 33 34 35 36 37 38 39 40 40 41 42 43 44 45 45 45 44 42 41 40 39 37 35 33 31 29 28 26 25 24 22 22 21 20 18 17 14 13 11 6 5 4 1 3 3 5 7 10 11 12 14 19 23 23 23 25 25 25 27
16 17 18 18 19 19 20 20 20 21 21 22 22 22 23 23 23 23 24 24 24 24 24 25 25 26 27 28 30 31 32 33 35 36 38 39 39 40 40 42 42 43 44 45 46 45 44 43 42 41 39 37 36 34 32 30 28 27 26 24 23 22 21 20 18 15 14 12 8 6 5 2 1 2 3 5 8 9 10 12 16 21 22 22 23 24 24 26
18 19 20 20 21 21 22 22 22 22 23 23 24 24 24 25 25 25 25 26 26 26 26 26 26 26 27 28 28 30 31 32 33 35 37 38 39 40 40 41 42 43 44 45 46 45 45 44 43 42 41 40 38 36 35 33 31 29 28 26 25 24 22 22 20 17 14 13 9 7 6 3 1 0 2 4 6 7 8 10 14 18 20 20 21 23 23 24
20 21 21 22 23 24 24 24 24 24 25 25 25 26 26 26 27 27 27 28 28 28 28 28 28 28 28 28 28 29 30 31 32 34 35 36 38 39 40 41 42 42 43 44 45 45 45 45 44 43 42 42 41 39 37 35 33 31 30 28 27 26 24 23 22 19 17 13 10 8 7 5 2 2 2 3 4 5 6 7 11 16 18 19 19 22 22 23
22 23 23 24 24 25 26 26 26 26 27 27 27 27 28 28 28 28 29 29 29 30 30 31 30 30 30 30 30 30 30 30 32 33 34 35 36 38 39 40 41 42 43 44 45 45 45 45 44 44 43 43 43 41 39 37 36 34 32 30 29 28 26 25 24 22 21 16 11 10 10 8 4 4 4 3 3 3 4 5 9 14 16 17 18 20 21 22
24 25 25 25 26 26 27 27 28 28 28 29 29 29 29 29 30 30 30 30 31 31 32 32 32 32 32 32 32 32 32 32 32 32 33 34 35 36 38 39 40 41 43 44 45 45 45 45 44 44 44 44 45 43 41 39 38 36 34 33 31 30 29 27 26 25 24 19 14 12 11 9 7 6 5 4 5 3 3 4 6 11 14 15 16 18 20 21
26 26 27 27 27 28 28 29 29 30 30 30 30 31 31 31 31 31 31 32 32 32 33 33 33 34 34 34 34 34 34 34 33 33 33 34 34 35 36 38 39 40 42 43 44 44 44 44 44 44 44 45 45 44 43 41 40 39 37 35 33 32 31 29 28 27 26 21 16 14 12 10 9 8 7 5 6 4 3 5 5 9 12 13 14 16 19 20
28 28 29 29 29 30 30 30 31 31 32 32 32 32 33 33 33 33 33 33 33 33 34 34 34 34 35 35 35 35 36 35 35 35 35 34 34 35 35 36 37 39 41 42 43 43 42 43 44 45 45 45 46 46 44 43 42 41 39 37 36 35 33 31 30 28 27 22 17 15 13 12 13 12 10 8 8 6 4 5 5 7 9 11 12 14 17 19
30 30 31 32 32 32 32 33 33 33 34 34 34 34 34 34 34 34 34 34 33 34 34 35 35 35 35 36 36 36 37 37 37 37 37 36 36 35 35 35 36 37 39 40 41 41 41 42 44 45 46 46 47 46 46 44 43 42 41 39 38 37 35 33 32 30 28 23 18 15 14 15 16 16 13 12 11 9 5 5 6 6 8 8 10 12 15 17
32 33 34 34 34 34 35 35 35 35 35 35 35 35 35 35 35 35 35 34 34 34 34 35 35 36 36 36 36 37 37 37 38 38 39 38 38 37 36 36 36 36 37 38 39 40 40 42 43 45 46 48 48 47 46 46 45 44 43 42 40 39 37 35 33 31 29 26 21 17 16 18 18 18 16 15 14 11 7 5 6 7 7 6 8 10 13 16
34 35 35 36 36 36 36 36 36 36 35 35 35 35 35 35 35 35 35 35 35 34 34 35 36 36 36 36 36 37 37 38 38 39 39 40 39 39 39 38 37 37 37 38 38 39 40 41 43 44 46 49 49 48 47 47 46 45 44 43 42 41 39 38 35 33 31 29 25 20 18 18 18 19 18 16 15 12 9 7 7 7 7 4 6 9 11 14
36 36 37 37 37 37 37 36 36 36 36 35 35 35 35 35 35 35 35 35 35 35 35 35 36 36 36 36 36 37 37 38 38 38 39 40 40 41 41 41 40 40 40 39 39 39 40 41 43 43 45 48 50 49 48 47 47 46 45 44 44 42 41 40 37 35 34 31 29 23 20 20 20 20 18 16 16 14 12 9 8 8 6 2 4 7 9 12
37 38 38 38 38 38 37 37 37 37 36 36 35 35 34 34 35 35 35 35 35 35 35 35 35 36 36 36 36 37 37 37 37 38 38 39 40 41 41 42 42 43 42 41 41 41 41 42 42 43 44 47 50 50 50 49 48 47 46 45 44 44 43 42 40 38 36 35 32 26 22 23 23 22 20 18 18 16 14 12 10 8 6 1 2 4 8 11
38 38 38 38 39 39 39 38 38 38 38 37 36 35 34 34 34 34 34 34 34 34 34 34 35 36 36 36 36 36 36 37 37 37 38 38 39 40 40 41 42 44 44 44 44 44 43 43 42 43 44 47 49 51 51 51 50 48 47 46 45 45 45 44 42 41 39 38 36 30 25 26 26 26 24 21 20 18 16 15 12 8 7 2 1 3 6 9
38 38 39 39 40 40 40 40 40 39 38 37 36 35 33 33 33 32 32 32 33 33 33 33 34 35 35 36 36 36 36 36 37 37 37 37 38 39 39 40 41 43 44 45 46 46 46 45 44 45 45 47 49 51 52 52 51 49 47 46 46 47 47 46 46 44 43 40 38 35 29 29 31 30 27 24 22 21 19 17 13 9 8 5 1 1 4 8
39 39 40 41 42 42 41 41 41 40 39 38 36 35 33 32 31 31 31 31 31 31 32 32 33 34 34 35 35 35 36 36 36 36 37 37 37 38 38 39 40 42 43 45 46 47 47 47 47 47 47 48 50 52 53 53 51 49 48 48 48 48 48 49 48 47 46 43 41 40 34 32 34 33 29 27 25 23 22 20 14 11 10 9 5 2 2 6
39 40 41 42 43 43 42 42 41 40 39 38 36 34 32 31 30 29 29 29 29 30 30 31 32 32 33 34 34 35 36 36 36 36 36 37 37 38 38 39 39 41 42 44 45 47 48 49 49 50 50 50 50 52 52 52 51 50 49 49 49 49 50 50 50 49 48 46 45 44 39 34 34 34 31 28 27 25 24 22 16 14 14 12 8 5 1 3
41 42 42 43 43 43 42 42 41 40 38 37 35 33 31 30 28 27 27 27 27 28 29 29 30 31 32 33 34 34 35 36 36 36 36 37 37 38 38 39 39 40 42 43 44 46 47 48 50 51 51 51 51 52 52 52 51 50 50 51 50 50 51 52 52 52 51 49 48 47 45 38 34 34 33 31 29 27 26 24 19 17 16 14 10 8 4 1
42 42 43 43 43 43 42 41 40 39 37 36 34 32 30 28 26 25 25 25 26 26 27 28 29 30 31 32 33 33 34 35 35 35 36 36 37 38 38 39 39 40 42 43 44 45 47 48 49 50 51 52 53 53 53 53 52 50 50 51 52 52 52 52 53 53 53 52 50 49 48 44 39 35 34 33 32 30 28 26 22 21 19 15 12 9 7 3
43 43 43 43 43 42 41 40 39 38 37 35 32 30 28 26 25 24 23 24 24 25 26 27 27 28 30 30 31 32 32 33 34 35 35 35 36 37 38 38 39 40 41 42 44 45 46 47 48 49 50 53 54 55 55 54 52 51 49 51 53 54 54 53 54 55 55 54 53 51 50 48 45 39 36 35 34 33 32 28 26 24 21 17 14 11 11 7
43 43 43 42 42 41 40 39 39 38 36 34 31 29 27 25 24 23 22 22 23 24 24 25 26 27 28 29 30 30 30 31 32 33 33 34 35 35 36 37 38 39 40 41 43 44 45 46 47 48 50 52 54 56 56 56 55 52 50 51 52 54 55 55 55 56 57 56 55 54 51 49 47 44 41 37 36 37 35 32 29 27 23 20 17 14 13 11
44 43 42 41 41 40 39 40 39 38 35 33 30 28 26 24 23 22 21 21 22 23 23 24 25 25 26 27 28 28 28 29 29 30 31 32 33 33 34 36 37 38 39 40 42 43 44 45 46 47 49 51 53 55 57 58 58 55 53 52 52 54 55 56 56 56 58 58 57 56 53 50 48 46 44 41 39 39 36 34 32 29 26 24 20 17 15 14
43 42 41 40 40 40 39 40 39 37 34 32 29 26 24 23 22 21 21 21 21 22 22 22 23 24 25 26 26 26 26 27 27 28 29 30 31 32 33 35 36 37 39 40 41 42 43 44 45 47 48 50 52 55 57 59 59 59 56 54 53 54 55 57 57 57 58 59 58 57 55 52 50 48 46 44 43 41 38 36 35 32 30 27 23 20 18 16
42 41 40 40 40 40 40 40 39 36 33 31 28 25 23 22 21 20 19 20 21 21 21 21 22 23 24 24 24 24 24 25 25 26 27 28 30 32 33 34 36 37 39 40 41 42 43 44 45 47 48 49 51 54 57 59 60 61 59 56 55 54 55 57 58 58 59 59 59 59 57 55 53 50 47 45 46 44 41 38 37 35 34 31 28 24 21 19
41 40 40 40 40 40 40 39 38 35 32 30 27 23 22 21 20 19 18 19 20 20 20 20 21 22 23 23 23 22 22 23 24 25 26 28 30 31 33 35 36 38 39 41 41 43 43 44 46 47 48 49 50 52 55 58 60 61 61 58 57 56 56 57 59 60 60 60 61 60 58 57 55 52 48 46 47 46 43 41 39 38 37 35 32 27 24 21
41 40 40 40 40 40 39 38 36 34 31 28 25 22 21 20 19 18 17 18 19 18 19 20 20 21 21 22 21 21 20 21 22 24 26 28 30 32 34 35 37 38 39 41 42 43 44 45 47 48 48 49 50 51 53 56 59 61 61 60 59 58 58 58 59 61 62 61 62 63 60 58 57 55 52 49 48 46 45 44 42 40 38 38 35 30 27 24
40 40 40 40 40 40 38 36 34 32 30 27 24 22 21 20 18 17 17 17 18 18 18 19 19 19 19 19 19 19 19 20 22 24 27 29 31 33 34 36 37 39 40 41 42 44 44 46 47 48 49 50 51 52 53 54 57 60 62 62 61 60 60 59 59 62 63 63 64 65 62 59 59 58 55 52 50 48 47 46 45 42 40 39 37 32 29 26
40 40 41 41 40 39 36 34 32 31 28 25 22 21 20 19 18 17 16 16 16 17 18 18 18 17 18 17 17 17 18 21 24 26 28 30 32 34 35 36 38 39 40 42 43 44 45 46 48 49 50 51 53 54 54 55 56 59 62 63 62 62 62 61 60 61 63 65 66 66 64 62 61 60 58 55 52 51 49 48 47 45 42 41 39 34 31 29
41 41 42 41 40 37 34 32 31 29 27 23 21 20 19 18 16 15 15 15 15 16 17 17 17 16 16 16 16 17 19 22 25 28 30 32 34 36 37 37 39 40 41 42 43 44 45 47 48 50 52 53 54 56 57 57 58 60 62 63 63 64 64 62 62 61 64 67 67 66 64 64 64 63 61 58 56 54 52 49 48 47 45 43 40 37 34 32
42 42 42 41 39 36 32 30 29 28 25 22 20 18 17 16 15 14 14 13 14 15 15 15 15 15 16 17 17 19 21 23 26 29 32 34 36 38 39 39 40 40 41 42 43 44 45 46 48 50 52 54 56 58 60 61 62 62 62 63 65 65 65 65 65 64 65 67 67 66 65 65 66 66 64 61 59 58 55 51 49 49 47 44 41 39 37 34
43 43 42 41 38 34 31 28 27 26 24 21 18 16 15 15 15 14 13 12 13 14 14 14 14 15 17 19 20 22 24 25 28 30 33 35 37 39 40 41 41 41 40 41 41 42 43 45 46 48 51 54 57 60 62 65 66 65 64 65 67 67 67 68 69 68 67 68 67 66 66 66 68 68 66 63 62 61 59 54 51 51 51 47 44 41 39 36
43 43 42 40 37 32 29 27 26 25 22 19 16 14 14 14 14 13 12 11 11 12 13 14 15 16 19 21 23 25 27 29 30 32 34 36 37 39 40 41 40 39 38 37 37 38 39 41 43 45 47 51 56 60 63 67 68 69 68 68 69 69 69 70 71 72 70 68 66 67 67 68 68 68 68 66 64 63 61 57 54 53 53 51 47 43 40 38
44 43 41 39 35 30 27 25 24 23 21 18 15 13 13 13 11 11 10 10 11 12 13 15 17 19 21 23 25 27 29 31 32 34 35 36 37 38 39 39 37 36 34 33 33 33 34 36 38 41 43 46 51 56 61 65 68 71 71 71 71 72 72 71 72 73 71 67 66 67 69 70 69 68 67 68 67 66 63 60 56 55 54 53 51 47 43 41
43 41 39 36 32 28 26 24 23 22 19 17 13 11 11 10 9 9 10 11 13 14 16 18 19 21 23 25 27 28 30 32 34 35 36 37 37 37 38 37 35 33 32 32 31 30 30 31 34 37 39 41 46 51 56 60 65 69 72 74 75 76 75 73 72 73 71 69 68 69 71 71 69 70 68 66 67 68 65 62 59 58 56 54 52 50 47 43
42 39 36 33 30 26 25 24 23 21 19 16 13 11 10 10 10 11 12 13 15 17 18 20 21 23 25 27 29 30 31 33 34 36 37 37 37 37 36 35 34 32 32 32 32 31 29 29 30 32 34 37 41 47 52 57 62 67 72 76 77 77 78 76 74 74 73 72 71 71 73 72 70 72 72 67 65 67 67 64 63 61 57 54 53 52 50 47
39 37 34 31 28 26 24 23 22 21 19 16 14 13 12 12 13 13 14 16 18 19 20 21 23 26 28 30 31 32 33 34 36 37 38 38 37 36 35 34 32 31 32 34 34 33 31 28 28 29 31 34 37 42 48 54 60 65 70 74 76 78 80 80 78 76 75 75 75 74 74 73 72 73 73 71 68 67 67 65 64 63 57 53 53 52 51 50
38 35 33 30 27 26 24 23 22 21 20 18 16 15 15 15 16 16 16 18 20 22 23 24 25 28 30 32 33 34 34 36 37 38 38 38 38 36 34 33 31 30 32 35 36 35 33 29 26 25 27 31 34 38 43 49 56 62 67 72 76 80 82 83 81 78 77 78 77 77 76 73 73 74 74 75 73 69 68 66 65 64 60 54 52 51 50 49
36 35 33 29 27 26 24 22 22 21 21 21 19 18 18 18 18 19 20 21 23 24 26 27 28 30 32 34 35 35 36 37 38 38 39 39 38 35 33 32 30 29 31 35 37 37 35 31 27 24 24 27 30 35 39 44 51 58 63 69 76 80 83 84 83 80 80 80 80 79 77 73 74 74 74 76 76 72 71 68 66 66 63 58 55 52 48 48
36 35 32 29 27 25 23 22 21 21 21 22 21 21 21 21 21 22 23 24 25 27 28 29 30 32 34 35 36 37 38 38 39 39 39 39 37 34 32 31 30 29 30 33 36 37 35 33 29 24 21 23 27 32 36 41 47 52 58 65 73 79 84 86 86 84 83 83 83 81 78 75 75 74 74 76 77 75 74 71 67 65 63 61 60 54 48 47
36 34 31 28 26 24 22 21 20 20 21 22 22 23 24 24 24 24 25 26 27 29 30 31 32 34 36 36 37 38 39 39 39 39 40 39 36 33 32 31 30 29 30 32 35 36 35 34 32 27 21 20 23 29 34 40 45 49 53 59 68 77 84 88 88 86 85 85 84 82 80 77 75 73 73 75 76 76 76 75 71 66 63 62 63 57 48 48
34 32 29 27 24 22 21 20 19 19 21 22 23 25 26 26 26 27 27 28 30 31 32 33 34 36 37 38 38 39 40 39 39 39 40 39 35 32 31 30 29 29 30 32 34 35 36 35 33 30 23 18 20 25 32 39 44 47 51 55 63 73 82 88 90 88 87 86 85 84 82 78 76 75 75 76 77 78 77 76 74 69 65 63 64 60 49 46
32 30 28 25 23 22 20 19 19 19 20 21 23 26 27 27 28 29 29 30 31 33 34 35 36 37 38 39 40 40 40 40 39 39 39 37 34 31 30 29 28 28 30 31 33 34 36 36 34 32 26 19 19 22 29 37 43 47 50 54 60 69 79 87 90 90 89 88 86 85 83 79 77 76 77 77 78 79 78 77 75 71 68 65 64 63 53 46
30 29 27 24 22 22 21 20 19 20 21 22 24 26 27 28 29 30 31 32 33 34 35 36 37 39 40 40 41 41 41 40 39 38 37 34 32 31 30 28 27 28 29 31 32 33 35 37 36 34 29 21 19 21 26 34 41 44 48 53 59 66 75 85 92 93 92 90 87 86 84 81 78 77 78 79 79 80 79 77 75 72 71 69 67 66 60 53
29 28 27 25 22 23 23 22 21 21 22 23 25 27 28 29 30 31 32 33 34 36 37 37 38 39 41 42 42 41 41 39 36 34 34 31 30 30 30 28 27 28 29 30 32 33 35 36 36 36 32 25 20 20 23 31 38 42 46 51 58 65 73 82 91 95 93 91 88 86 85 83 81 78 78 78 79 80 79 77 76 74 73 73 71 70 66 61
29 28 28 27 25 24 25 25 24 25 25 26 27 29 30 31 32 32 33 33 35 37 38 39 39 40 42 42 42 41 39 36 32 29 29 28 28 29 30 29 28 28 29 30 32 34 35 35 35 36 35 29 21 19 22 28 34 39 44 50 56 64 71 80 90 95 94 92 89 88 86 84 84 81 76 74 77 79 78 77 76 75 75 75 75 74 71 67
31 30 30 30 29 28 27 28 28 29 29 29 29 31 31 32 33 34 34 35 36 38 39 40 41 42 42 42 41 39 36 32 28 27 26 25 26 27 29 28 28 28 28 30 32 33 35 35 34 35 36 31 23 19 20 25 31 36 42 48 55 62 69 78 88 93 94 92 90 89 88 87 87 83 74 69 71 76 78 78 77 77 76 77 78 77 75 72
34 33 33 33 33 32 32 32 32 32 33 32 32 33 33 33 34 35 36 37 38 39 40 41 42 42 41 39 37 35 33 29 26 26 26 25 25 26 27 26 27 27 27 29 31 32 34 35 34 34 35 32 25 19 19 23 28 34 39 46 54 60 67 77 86 92 94 93 91 90 90 91 90 85 75 64 61 70 78 78 77 78 78 78 80 80 78 76
39 38 37 36 36 37 36 36 36 36 36 36 35 35 35 35 36 37 37 38 38 39 41 42 41 39 37 34 32 30 28 27 25 25 26 26 26 27 26 26 26 26 27 28 29 31 33 34 33 32 34 32 26 20 19 21 26 32 38 44 52 59 66 75 85 92 94 93 92 91 92 93 91 87 80 67 58 66 78 80 77 78 79 79 80 82 81 79
42 41 41 41 40 40 40 40 40 39 39 39 38 38 37 36 37 37 38 38 39 40 42 41 39 36 33 30 28 27 26 26 25 26 27 27 27 27 27 26 25 25 26 27 29 30 32 34 33 31 32 33 28 21 18 20 25 31 36 42 50 57 64 73 84 91 94 93 93 92 93 93 90 87 83 73 64 68 76 81 80 79 80 81 81 81 82 81
38 38 39 39 40 41 42 43 43 43 42 42 41 40 39 38 37 38 38 38 40 41 41 38 35 33 30 28 27 26 26 26 26 27 27 28 28 28 27 26 26 25 26 27 28 29 31 33 33 31 31 33 29 22 18 19 24 29 34 40 48 56 63 71 81 90 94 94 93 92 94 92 89 88 81 70 68 75 77 80 83 81 81 83 82 81 81 81
Wind_Direction
261 261 260 259 258 257 257 257 257 257 257 257 257 256 256 254 254 252 251 250 249 249 248 247 246 245 245 245 244 243 242 241 239 239 239 239 238 237 237 238 239 240 240 239 239 240 240 239 239 238 237 236 236 235 232 229 227 227 228 229 230 232 234 239 249 259 260 264 290 315 353 14 5 356 345 355 6 11 23 29 31 34 35 34 30 30 31 32
268 268 267 265 263 261 260 259 257 257 257 257 257 257 257 257 256 255 254 253 252 251 250 249 247 246 246 245 245 244 244 243 241 240 239 239 238 238 237 237 238 239 240 239 239 239 240 240 239 238 237 236 235 235 233 231 228 226 226 228 230 232 233 235 243 250 250 255 278 289 303 5 3 351 338 353 6 7 21 29 31 33 35 35 32 30 32 32
274 274 273 272 269 267 265 263 262 260 259 258 258 257 258 257 257 257 256 255 255 254 253 251 250 248 247 245 245 244 244 243 242 242 241 240 239 238 238 237 237 238 239 240 239 238 239 240 240 239 238 236 235 235 233 231 229 227 225 226 229 231 233 233 237 243 244 251 264 263 265 323 8 351 333 353 6 5 18 27 31 33 34 36 33 31 32 32
278 278 278 277 276 274 272 270 268 266 264 262 260 259 258 258 258 257 257 256 256 255 255 254 252 251 249 247 245 244 243 243 242 242 242 241 240 239 238 238 237 237 238 240 240 239 238 239 239 239 239 237 235 234 233 231 229 228 226 225 227 229 230 230 233 237 242 248 247 242 249 271 10 13 336 357 6 5 15 23 27 30 32 36 34 32 32 32
281 282 282 281 280 279 277 275 273 272 270 268 266 263 261 260 259 258 258 257 257 256 255 254 254 253 251 249 247 246 244 243 242 242 242 241 241 240 239 239 238 238 238 238 240 239 239 238 238 238 239 238 236 234 233 232 230 228 226 224 226 227 228 228 229 231 237 241 237 234 244 258 295 20 329 358 5 3 12 18 21 26 32 36 35 33 32 32
283 284 284 283 283 282 282 280 278 276 274 272 270 268 266 264 262 261 259 258 257 256 255 254 253 253 252 252 250 248 246 244 242 241 241 241 241 240 239 239 239 239 238 238 239 239 239 238 238 238 238 238 237 235 233 232 230 228 227 225 224 226 226 226 227 226 228 231 232 231 235 244 235 214 275 326 342 358 8 11 17 21 30 36 36 34 33 32
287 286 286 285 285 284 284 283 281 280 278 276 274 272 270 268 266 264 262 260 258 257 256 255 254 253 252 252 251 250 248 246 244 242 241 241 241 241 240 239 239 239 239 239 238 238 238 238 238 238 238 237 237 236 233 232 231 228 227 225 224 224 225 225 225 225 225 229 235 231 226 232 224 205 227 269 291 336 3 358 12 16 26 37 37 36 34 32
290 290 289 287 286 285 284 283 283 282 281 279 277 276 273 271 268 267 265 263 261 259 257 256 255 253 252 252 251 251 250 248 246 244 243 241 241 241 241 240 239 239 239 239 239 239 239 238 238 238 237 237 237 236 234 232 231 229 227 226 224 223 223 223 223 224 226 228 233 233 225 229 234 220 218 238 258 284 346 337 2 11 21 38 39 38 36 33
294 293 292 290 288 286 285 283 283 282 282 281 280 278 276 274 271 268 266 264 263 261 259 257 256 254 253 252 251 251 250 250 249 247 245 243 242 241 241 241 240 240 240 239 239 239 239 239 239 238 237 237 237 236 234 231 230 229 227 225 224 223 222 221 222 224 225 225 228 233 230 232 241 233 230 238 242 253 309 314 343 5 16 37 42 40 39 35
296 295 294 292 290 288 286 285 284 283 282 281 280 279 278 276 273 270 267 264 263 262 260 259 257 255 254 252 251 250 250 250 250 249 248 246 244 242 241 241 241 240 241 240 240 239 239 240 240 239 238 237 236 235 234 232 230 228 227 225 224 223 222 220 221 223 223 221 222 231 232 230 234 233 233 233 230 237 273 298 319 349 8 35 44 43 44 40
298 297 296 294 293 291 289 287 286 285 283 282 281 280 278 277 274 272 268 265 262 261 261 260 258 256 254 253 251 251 250 249 249 249 249 248 246 244 243 241 241 241 241 241 241 240 239 239 239 239 239 238 236 235 234 232 230 228 226 224 223 223 223 221 220 222 222 217 215 225 228 225 225 226 229 229 227 233 242 274 297 323 355 29 48 47 49 47
299 298 297 296 295 293 292 290 289 288 286 284 282 281 279 277 275 272 269 266 263 261 260 260 259 257 255 253 252 251 250 249 249 249 249 248 247 246 244 243 241 241 241 241 241 241 239 238 238 239 239 238 237 235 234 233 231 229 226 224 223 222 223 221 219 220 220 213 210 215 221 223 222 221 224 222 223 229 230 251 280 301 335 21 52 53 55 54
300 300 299 298 297 296 294 293 292 291 289 287 284 282 280 278 276 273 270 268 265 262 261 260 259 257 255 254 253 252 251 250 249 249 248 248 247 246 245 244 242 241 240 240 240 240 239 238 238 238 239 239 237 235 234 233 231 229 227 225 223 221 221 222 219 217 218 213 208 210 213 215 215 216 218 214 217 225 226 239 263 287 318 6 59 59 61 60
301 301 301 300 299 298 297 296 295 294 292 290 287 284 281 279 277 274 272 269 267 264 262 261 259 257 256 254 253 252 252 251 250 249 248 248 247 246 244 243 242 241 240 239 238 238 238 238 238 237 238 239 238 236 234 233 232 229 227 225 223 221 220 220 219 216 216 213 207 207 209 208 206 211 210 203 210 219 224 235 250 276 303 342 64 63 68 67
302 303 303 302 301 300 299 299 298 298 295 292 289 286 284 281 278 275 272 270 268 266 263 261 259 257 256 254 253 253 253 253 252 250 249 248 247 246 244 243 242 241 240 239 238 237 237 237 237 237 238 239 238 236 234 232 231 229 227 225 223 222 220 219 219 216 215 213 207 203 206 208 206 206 204 199 205 213 223 232 241 264 282 293 61 59 72 74
303 304 304 303 303 302 302 302 302 301 298 295 292 290 287 283 280 276 273 271 268 267 264 262 260 257 256 254 253 253 253 253 253 251 249 248 247 246 245 244 243 241 240 239 238 237 237 236 236 237 237 239 239 237 235 232 230 229 228 225 223 222 220 218 218 216 214 212 208 200 200 206 205 205 205 202 203 210 222 229 234 256 266 257 33 48 74 81
304 304 305 304 304 305 306 306 305 304 301 299 297 294 291 287 282 278 275 271 268 266 264 262 259 257 255 254 254 253 253 253 253 252 251 249 248 247 246 245 244 243 241 239 238 237 237 236 236 236 236 238 239 238 236 233 230 229 228 226 223 221 220 218 217 215 213 211 208 200 197 202 204 207 209 204 202 207 218 225 229 246 257 256 256 42 71 87
304 304 305 305 306 308 308 308 307 306 304 302 301 298 295 290 285 280 275 272 268 266 263 261 259 257 256 255 254 254 253 253 253 253 252 251 250 249 247 246 245 244 242 241 239 238 236 236 235 235 235 236 238 239 237 234 231 228 227 225 223 220 219 218 217 215 213 211 208 203 199 201 204 208 210 206 204 205 213 220 224 232 240 243 229 185 74 89
303 304 305 307 308 309 310 309 309 307 306 305 303 300 297 293 287 282 276 272 268 265 262 260 258 257 256 255 254 254 253 253 253 253 253 253 253 251 250 248 247 246 244 242 241 239 237 236 235 235 235 236 237 239 239 236 232 229 226 225 224 221 219 218 217 215 213 211 209 206 201 200 203 207 208 208 208 208 211 216 218 224 228 235 224 192 144 91
303 304 306 308 310 310 310 310 309 308 307 307 305 302 299 295 290 283 277 272 267 264 262 260 258 257 255 255 254 254 254 254 254 253 254 254 254 253 252 251 250 248 246 244 242 240 238 236 235 235 236 236 237 239 240 238 234 229 226 225 224 222 220 218 217 216 214 212 211 209 204 200 201 205 206 208 210 209 211 213 215 220 223 231 226 197 186 122
304 305 308 310 310 311 311 310 310 309 308 307 306 303 301 296 291 285 278 272 267 264 261 259 258 256 255 254 254 254 255 256 255 255 255 255 255 255 254 253 251 250 248 247 244 242 240 237 236 235 235 236 236 237 239 239 236 231 227 225 224 222 220 218 217 216 214 212 212 211 208 205 203 203 204 207 209 208 210 211 212 216 218 224 222 203 199 202
305 307 309 310 310 311 311 311 311 310 310 308 307 304 301 297 291 285 279 274 269 264 261 259 257 256 255 255 254 254 255 256 257 257 257 256 256 256 255 254 253 251 250 248 246 243 241 239 236 234 233 234 235 236 237 238 237 233 228 226 224 222 221 218 217 216 215 213 212 212 210 209 208 206 205 206 207 208 208 208 211 214 215 218 216 207 205 204
306 308 310 310 310 311 312 313 313 312 311 310 308 306 303 298 292 286 280 275 270 265 261 259 257 257 256 255 255 255 255 257 258 259 259 258 258 257 257 256 254 253 251 249 247 245 242 240 237 235 232 232 233 234 235 236 236 234 229 226 224 223 221 219 217 216 215 214 213 213 211 211 210 209 209 207 206 208 207 205 210 214 214 215 213 208 206 201
307 309 310 310 311 312 314 315 314 313 312 310 309 307 304 299 294 288 281 276 270 266 263 260 258 257 256 256 256 257 257 258 258 260 260 260 260 259 259 258 256 255 253 251 249 246 244 241 239 236 233 231 231 232 234 235 235 233 230 226 225 223 221 219 217 216 216 214 213 213 212 210 210 211 212 210 208 209 207 205 209 213 215 216 212 209 208 199
307 309 310 311 312 313 315 316 314 313 312 310 308 307 304 300 295 289 283 276 271 268 265 262 260 258 257 258 258 259 260 261 261 261 262 262 263 262 261 261 260 258 256 253 251 248 246 244 242 238 234 231 230 230 231 233 234 233 230 227 224 223 221 220 218 216 216 215 213 213 212 210 210 212 212 212 211 211 208 206 209 213 217 218 213 209 208 202
307 308 310 311 312 314 316 316 314 313 312 310 308 307 304 301 295 290 283 276 271 268 266 264 262 260 260 260 261 262 263 264 265 265 265 265 265 265 265 264 263 261 260 257 255 252 250 247 244 240 237 233 230 229 229 231 232 233 231 227 224 222 222 220 218 217 216 215 214 214 213 211 209 211 212 211 212 212 210 208 208 212 217 218 215 209 207 204
307 308 310 311 312 314 316 315 314 312 311 309 308 307 304 301 295 290 283 275 271 269 267 264 261 261 262 262 263 264 264 265 267 268 269 269 268 268 267 267 266 264 263 261 258 255 252 250 247 244 240 237 233 230 229 229 231 232 231 229 225 223 221 220 218 217 216 215 215 214 213 212 209 210 211 210 211 211 210 208 208 211 215 217 215 208 206 207
306 308 309 311 312 314 315 314 313 311 310 309 308 306 304 300 295 288 281 275 271 269 266 264 261 260 262 263 265 266 266 267 269 271 273 274 273 272 271 270 269 268 266 263 261 258 255 252 249 247 244 241 237 233 230 229 230 231 232 229 226 223 221 220 218 217 216 214 215 214 212 212 210 210 211 210 210 210 208 207 208 211 214 215 214 208 204 207
306 307 308 310 312 314 314 314 312 310 309 308 307 306 304 299 293 287 280 275 272 269 266 264 263 263 264 265 268 269 269 272 274 276 277 278 278 277 275 274 273 271 269 266 263 260 257 254 251 248 245 243 241 238 233 230 229 230 231 229 227 225 223 220 218 217 216 215 215 214 212 211 210 210 210 210 209 209 208 207 208 210 211 212 213 209 205 206
305 306 308 310 312 313 313 312 311 309 307 306 305 305 303 297 291 285 280 276 274 270 267 267 268 268 268 267 267 269 273 277 280 283 283 284 284 283 282 280 278 276 273 269 266 262 259 256 252 249 246 243 241 240 237 233 229 228 229 229 227 225 223 221 219 217 216 216 215 213 211 210 209 209 210 209 208 208 207 206 207 209 208 209 211 209 206 206
304 305 307 310 311 312 312 311 309 307 305 304 304 304 300 294 290 286 283 280 274 270 268 271 273 273 272 272 272 274 279 283 287 289 290 291 291 289 288 286 284 282 279 275 270 266 261 258 254 250 247 243 240 239 238 236 232 228 227 228 227 225 223 221 219 217 216 217 215 213 211 210 209 208 209 209 208 208 207 205 205 207 205 206 209 209 208 206
303 305 307 309 310 311 310 309 307 304 303 302 302 301 297 293 290 287 287 284 276 272 272 273 274 275 276 278 281 283 285 289 293 296 297 298 297 296 294 293 291 289 286 282 277 272 266 261 256 251 247 243 240 237 236 235 233 230 226 225 226 225 222 221 220 217 217 217 215 212 212 211 210 209 209 208 208 209 208 205 203 204 203 204 207 208 209 208
303 305 307 308 308 308 308 306 304 302 299 299 299 297 294 293 292 291 291 289 281 277 277 276 278 280 283 286 289 292 295 297 299 301 303 304 303 302 300 299 297 294 291 286 281 276 271 265 259 253 248 243 239 236 233 232 232 230 227 223 224 224 222 220 219 217 217 217 215 212 212 212 210 210 209 208 208 209 210 205 201 203 204 205 206 206 208 210
303 304 306 307 306 306 305 303 301 298 296 295 294 292 291 292 293 295 298 296 287 283 282 282 284 287 290 293 296 299 302 304 305 307 307 308 308 306 303 302 300 297 293 289 284 279 274 269 263 257 249 243 239 234 232 230 229 229 227 223 222 222 222 219 218 217 216 216 215 213 213 212 210 210 210 209 209 210 211 207 204 205 207 208 207 205 206 211
303 304 305 305 304 304 302 300 298 294 291 290 288 285 287 289 292 297 301 300 292 288 288 287 289 291 294 297 300 303 306 307 308 309 309 310 310 308 306 304 303 300 297 294 290 285 279 273 267 260 252 245 239 235 231 229 227 226 225 223 220 220 221 219 218 217 216 215 215 214 214 213 210 210 210 210 210 210 211 209 206 207 209 210 208 204 205 210
302 303 304 304 303 302 300 297 294 290 285 283 280 277 278 282 286 292 296 297 293 292 292 292 293 295 297 299 302 305 307 308 309 309 310 312 312 310 307 306 306 305 304 303 300 296 289 280 272 264 255 247 240 235 231 228 226 225 223 222 219 218 218 218 217 217 215 214 214 214 215 214 210 209 209 209 210 210 210 209 206 207 208 208 208 205 204 209
302 302 303 303 302 301 298 294 290 284 277 273 269 266 268 272 279 287 292 293 293 293 293 294 296 297 298 301 303 306 308 309 309 310 312 313 313 312 310 309 309 309 312 313 310 307 300 289 278 269 260 250 241 234 229 226 224 223 222 220 219 217 216 215 214 214 213 213 213 214 214 213 210 209 208 208 208 208 209 208 206 206 207 207 208 207 204 208
300 301 302 302 301 300 296 292 286 278 269 262 258 259 264 271 279 286 290 291 292 292 293 294 296 297 300 302 305 307 309 310 310 312 313 314 315 313 311 310 311 313 317 319 318 315 310 300 288 276 265 254 244 236 229 225 222 221 221 220 218 216 215 213 212 211 211 212 212 213 214 212 210 210 208 208 208 207 208 208 207 207 206 205 208 209 208 209
299 300 301 301 301 298 295 290 282 274 263 256 253 257 266 273 280 285 290 292 293 294 295 296 297 299 301 304 306 308 310 311 311 313 314 315 315 314 313 311 312 315 319 321 321 320 318 312 300 286 269 256 246 237 230 225 222 220 219 218 217 215 213 212 210 209 209 210 211 212 213 212 210 209 208 209 209 208 208 209 209 209 206 204 208 211 212 213
297 299 299 300 299 297 294 287 279 270 260 254 253 259 266 273 279 285 290 292 294 296 297 298 299 301 303 305 307 309 311 311 312 314 314 314 315 314 312 310 311 315 319 321 321 322 323 321 314 298 274 256 246 237 230 226 222 220 218 216 215 214 213 210 208 206 207 208 209 211 211 211 211 209 209 210 210 209 209 209 209 209 208 208 210 210 211 214
296 297 298 298 297 295 292 285 277 268 259 255 255 260 267 273 279 284 289 292 296 298 298 300 301 303 305 306 308 310 311 312 313 314 313 313 314 313 311 310 310 314 318 320 321 323 326 326 324 312 284 260 247 237 229 224 222 221 219 216 213 212 211 210 206 204 206 207 207 209 210 210 211 210 209 210 210 210 210 209 209 210 209 210 211 208 207 212
295 296 297 296 294 292 289 282 275 268 261 257 259 262 268 274 279 283 288 292 295 297 298 300 302 304 305 307 309 310 311 312 313 313 312 312 313 312 310 309 310 313 318 320 320 324 327 329 330 323 299 268 252 240 228 223 220 219 219 217 213 210 209 209 205 202 204 206 206 207 207 208 209 209 210 211 211 211 211 211 211 210 208 208 209 207 205 211
293 295 295 294 291 288 285 280 274 268 264 262 263 266 270 275 280 284 288 292 294 296 297 300 302 304 306 307 308 309 310 311 312 311 310 311 312 311 309 308 310 313 318 320 321 323 327 329 332 330 313 281 259 244 230 222 219 217 216 215 213 210 208 207 204 201 203 205 205 205 206 206 207 207 208 210 210 210 211 212 211 210 207 206 208 207 204 210
292 294 293 291 288 284 281 277 274 270 267 266 267 269 273 278 281 285 288 290 293 295 297 300 303 304 306 307 307 308 308 309 309 309 309 310 310 309 308 307 310 313 317 321 321 323 326 329 332 334 323 295 268 250 232 223 220 218 215 213 212 210 207 206 203 201 201 203 203 204 204 205 206 206 207 208 208 209 210 211 210 209 206 204 206 206 203 206
291 292 291 288 285 282 279 275 274 272 270 270 271 273 277 280 282 286 289 291 293 295 298 301 303 304 305 305 305 306 306 307 307 307 307 308 309 308 307 307 311 314 318 322 323 322 326 328 331 335 330 308 278 256 237 226 222 220 216 213 210 208 206 205 202 200 200 201 202 202 202 203 205 206 207 207 208 208 209 209 208 207 206 204 204 205 203 203
288 289 289 286 282 279 277 274 274 273 273 274 275 277 279 282 284 286 289 292 293 295 298 300 302 303 304 304 304 304 304 305 305 306 306 308 309 308 306 308 312 315 319 324 325 323 325 327 331 334 333 318 289 263 244 229 223 220 217 212 210 207 205 204 202 200 200 200 201 201 202 202 203 205 207 208 208 209 208 209 208 206 205 204 203 204 204 204
285 285 286 285 281 278 276 275 274 274 275 277 278 279 281 283 285 287 289 291 293 294 297 300 302 302 302 302 303 303 303 304 304 305 306 307 308 306 305 308 312 315 320 325 326 325 324 326 330 334 334 324 299 271 249 233 224 221 218 213 209 207 205 203 202 201 200 200 200 201 201 201 203 205 207 209 210 210 208 209 209 206 205 204 203 205 205 205
280 281 282 282 281 278 276 275 275 275 276 278 279 280 282 284 286 288 289 291 292 294 297 300 302 302 302 302 302 302 303 303 303 305 306 306 307 305 304 307 311 314 319 323 326 325 324 326 329 333 334 328 308 279 253 235 224 221 218 213 209 207 205 203 201 201 201 200 199 201 201 201 202 203 204 208 213 213 210 209 209 207 205 205 205 206 207 207
277 277 277 278 279 278 276 276 276 276 277 277 278 280 282 284 285 287 289 291 293 295 298 300 301 301 301 301 301 302 302 303 305 306 307 306 306 304 304 306 309 313 317 321 324 325 325 324 326 331 334 331 316 288 258 237 225 220 218 213 208 206 205 203 200 200 201 201 200 201 201 201 202 201 200 202 212 217 213 210 209 207 206 206 207 208 209 210
275 275 274 274 275 276 275 275 276 276 276 277 277 278 280 282 284 286 288 291 293 295 298 300 300 299 299 300 302 303 304 305 306 305 304 305 305 304 304 306 308 311 315 319 322 325 325 324 324 329 334 334 325 300 267 240 226 220 217 213 209 205 204 203 201 200 201 201 201 202 203 203 202 201 198 198 207 216 213 210 209 208 207 207 208 210 211 211
274 274 273 273 272 273 273 274 274 275 275 276 276 277 278 280 282 284 286 289 292 295 297 298 297 297 299 302 304 305 305 305 304 302 302 303 304 304 304 306 307 310 313 317 320 324 326 324 322 327 334 336 332 313 279 248 229 221 217 214 209 206 204 204 201 200 200 201 202 203 204 204 203 201 198 198 206 213 211 209 209 208 207 207 208 210 212 212
274 275 275 275 274 273 273 273 273 273 273 273 274 275 276 278 280 282 284 287 291 294 296 295 295 296 299 303 305 305 305 302 300 300 300 301 302 303 304 305 306 308 311 314 317 323 326 325 323 326 334 338 337 325 294 260 236 223 218 215 212 207 205 204 203 201 200 201 202 204 205 205 204 200 198 199 209 214 212 209 209 208 207 208 208 210 212 212